Regional Weather Roundup
Issued by NWS Cleveland, OH

Home | Current Version | Previous Version | Graphics & Text | Print | Product List | Glossary Off
Versions: 1 2 3 4 5 6 7 8 9 10 11 12 13 14 15 16 17 18 19 20 21 22 23 24 25 26 27 28 29 30 31 32 33 34 35 36 37 38 39 40 41 42 43 44 45 46 47 48 49 50

000
ASUS41 KCLE 191802
RWRCLE
OHIO REGIONAL WEATHER ROUNDUP
NATIONAL WEATHER SERVICE CLEVELAND, OH
100 PM EST THU JAN 19 2017

NOTE: "FAIR" INDICATES FEW OR NO CLOUDS BELOW 12,000 FEET WITH NO
SIGNIFICANT WEATHER AND/OR OBSTRUCTIONS TO VISIBILITY.

OHZ001>008-015>018-024>027-034-035-043-044-191900-
   NORTHWEST OHIO

CITY           SKY/WX    TMP DP  RH WIND       PRES   REMARKS
DEFIANCE       CLOUDY    38  34  85 E6        30.00F
FINDLAY        CLOUDY    39  34  82 SE9       29.99F
TOLEDO EXPRESS CLOUDY    37  35  92 VRB3      30.01F
TOLEDO EXEC    CLOUDY    38  34  85 S7        30.02F FOG
LIMA           CLOUDY    39  37  92 SE8       29.99F
$$

OHZ009>014-019>023-028>033-038-089-191900-
   NORTHEAST OHIO

CITY           SKY/WX    TMP DP  RH WIND       PRES   REMARKS
CLE-HOPKINS    CLOUDY    41  34  76 W5        30.06F
CLE-LAKEFRONT  CLOUDY    37  34  89 CALM      30.04F
CUY CO. ARPT   NOT AVBL
LORAIN-ELYRIA  CLOUDY    39  33  79 S5        30.03F
ASHTABULA      CLOUDY    38  35  89 S6        30.04F
AKRON-CANTON   CLOUDY    40  34  79 SW7       30.03F
WOOSTER        CLOUDY    39  34  82 SW5       30.03F
MANSFIELD      CLOUDY    39  35  86 SE5       30.00F
YOUNGSTOWN     CLOUDY    39  34  82 S6        30.02F
$$

OHZ042-051>053-060>062-070>072-077>081-191900-
  SOUTHWEST OHIO

CITY           SKY/WX    TMP DP  RH WIND       PRES   REMARKS
CINC-COVINGTON CLOUDY    47  40  76 SE7       30.00S
CINC-LUNKEN    CLOUDY    47  41  80 SW3       30.03S
HAMILTON       PTSUNNY   47  39  74 CALM      30.03F
DAYTON         PTSUNNY   43  36  76 S7        30.02F
WRIGHT-PAT AFB NOT AVBL
DAYTON GENERAL CLOUDY    44  38  79 SE3       30.01S
WILMINGTON     CLOUDY    45  40  82 SE6       30.01F
$$

OHZ036-037-039>041-045>050-054>059-063>069-073>076-082>088-191900-
  CENTRAL AND SOUTHEAST OHIO

CITY           SKY/WX    TMP DP  RH WIND       PRES   REMARKS
COLUMBUS       CLOUDY    43  36  76 E7        30.01F
OSU AIRPORT    CLOUDY    41  38  89 E8        30.00F
BOLTON FIELD   CLOUDY    39  37  93 SE7       30.01F
RICKENBACK AFB   N/A     41  37  86 SE5       30.01F
NEWARK         CLOUDY    41  35  79 S5        30.03F
MARION         CLOUDY    40  35  83 S6        30.00F
LANCASTER      CLOUDY    43  37  79 E6        30.03F
ZANESVILLE     CLOUDY    40  36  86 SE3       30.04F
NEW PHILLY     NOT AVBL
$$



USA.gov is the U.S. government's official web portal to all federal, state and local government web resources and services.